| time (UTC) | temp F | wind direction | speed knots | gust knots | rain 1hr in | rain 24hr in | rain mn in | humidity % | barometer mb |
| 20260507234016 | 52 | 0.0 | 2.6 | 0.00 | 0.01 | 0.00 | 86 | 1016.0 | |
| 20260507233016 | 52 | 0.0 | 2.6 | 0.00 | 0.01 | 0.00 | 86 | 1015.9 | |
| 20260507232016 | 51 | 0.0 | 0.0 | 0.01 | 0.01 | 0.00 | 86 | 1015.8 | |
| 20260507231036 | 51 | 0.0 | 1.7 | 0.01 | 0.01 | 0.00 | 85 | 1015.9 | |
| 20260507230016 | 51 | 0.0 | 1.7 | 0.01 | 0.01 | 0.01 | 84 | 1015.9 | |
| 20260507225036 | 51 | 90 | 0.9 | 1.7 | 0.01 | 0.01 | 0.01 | 84 | 1016.0 |
| 20260507224016 | 51 | 0.0 | 0.9 | 0.01 | 0.01 | 0.01 | 83 | 1015.9 | |
| 20260507223016 | 51 | 0.0 | 0.9 | 0.01 | 0.01 | 0.01 | 82 | 1016.0 | |
| 20260507222016 | 52 | 90 | 0.9 | 3.5 | 0.00 | 0.00 | 0.00 | 82 | 1016.1 |
| 20260507221015 | 53 | 0.0 | 1.7 | 0.00 | 0.00 | 0.00 | 82 | 1016.2 | |
| 20260507220035 | 53 | 135 | 0.9 | 4.3 | 0.00 | 0.00 | 0.00 | 81 | 1016.3 |
| 20260507215016 | 53 | 90 | 0.9 | 6.1 | 0.00 | 0.00 | 0.00 | 81 | 1016.2 |
| 20260507214016 | 53 | 113 | 0.9 | 3.5 | 0.00 | 0.00 | 0.00 | 82 | 1016.3 |
| 20260507213015 | 53 | 90 | 0.9 | 2.6 | 0.00 | 0.00 | 0.00 | 83 | 1016.3 |
| 20260507212016 | 53 | 90 | 0.9 | 2.6 | 0.00 | 0.00 | 0.00 | 83 | 1016.3 |
| 20260507211016 | 53 | 0.0 | 0.9 | 0.00 | 0.00 | 0.00 | 84 | 1016.2 | |
| 20260507210015 | 53 | 0.0 | 1.7 | 0.00 | 0.00 | 0.00 | 84 | 1016.2 | |
| 20260507205016 | 53 | 0.0 | 1.7 | 0.00 | 0.00 | 0.00 | 84 | 1016.2 | |
| 20260507204015 | 53 | 0.0 | 1.7 | 0.00 | 0.00 | 0.00 | 84 | 1016.2 | |
| 20260507203035 | 53 | 113 | 0.9 | 2.6 | 0.00 | 0.00 | 0.00 | 84 | 1016.0 |
| 20260507202016 | 53 | 68 | 0.9 | 3.5 | 0.00 | 0.00 | 0.00 | 84 | 1015.8 |
| 20260507201015 | 53 | 68 | 0.9 | 2.6 | 0.00 | 0.00 | 0.00 | 84 | 1015.7 |
| 20260507200016 | 53 | 0.0 | 1.7 | 0.00 | 0.00 | 0.00 | 84 | 1015.6 | |
| 20260507195016 | 53 | 0.0 | 2.6 | 0.00 | 0.00 | 0.00 | 83 | 1015.4 | |
| 20260507194016 | 53 | 0.0 | 1.7 | 0.00 | 0.00 | 0.00 | 83 | 1015.3 | |
| 20260507193016 | 53 | 23 | 0.9 | 1.7 | 0.00 | 0.00 | 0.00 | 83 | 1015.3 |
| 20260507192017 | 53 | 90 | 0.9 | 3.5 | 0.00 | 0.00 | 0.00 | 83 | 1015.3 |
| 20260507191016 | 53 | 45 | 0.9 | 2.6 | 0.00 | 0.00 | 0.00 | 83 | 1015.3 |
| 20260507190016 | 54 | 90 | 0.9 | 3.5 | 0.00 | 0.00 | 0.00 | 83 | 1015.2 |
| 20260507185017 | 54 | 90 | 0.9 | 3.5 | 0.00 | 0.00 | 0.00 | 82 | 1015.2 |
| 20260507184016 | 54 | 23 | 0.9 | 2.6 | 0.00 | 0.00 | 0.00 | 81 | 1015.2 |
| 20260507183016 | 54 | 135 | 0.9 | 3.5 | 0.00 | 0.00 | 0.00 | 80 | 1015.2 |
| 20260507182016 | 54 | 113 | 0.9 | 4.3 | 0.00 | 0.00 | 0.00 | 79 | 1015.2 |
| 20260507181016 | 55 | 90 | 0.9 | 3.5 | 0.00 | 0.00 | 0.00 | 78 | 1015.1 |
| 20260507180016 | 55 | 113 | 0.9 | 4.3 | 0.00 | 0.00 | 0.00 | 77 | 1015.2 |
| 20260507175057 | 55 | 90 | 0.9 | 3.5 | 0.00 | 0.00 | 0.00 | 77 | 1015.1 |
| 20260507174036 | 55 | 90 | 0.9 | 3.5 | 0.00 | 0.00 | 0.00 | 77 | 1015.2 |
| 20260507173016 | 55 | 113 | 0.9 | 2.6 | 0.00 | 0.00 | 0.00 | 77 | 1015.3 |
| 20260507172016 | 55 | 23 | 0.9 | 3.5 | 0.00 | 0.00 | 0.00 | 77 | 1015.3 |
| 20260507171016 | 55 | 113 | 1.7 | 4.3 | 0.00 | 0.00 | 0.00 | 77 | 1015.4 |
| 20260507170016 | 55 | 135 | 0.9 | 5.2 | 0.00 | 0.00 | 0.00 | 76 | 1015.5 |
| 20260507165016 | 56 | 68 | 0.9 | 3.5 | 0.00 | 0.00 | 0.00 | 75 | 1015.6 |
| 20260507164016 | 56 | 90 | 1.7 | 4.3 | 0.00 | 0.00 | 0.00 | 73 | 1015.4 |
| 20260507163016 | 56 | 90 | 0.9 | 3.5 | 0.00 | 0.00 | 0.00 | 73 | 1015.5 |
| 20260507162016 | 56 | 90 | 1.7 | 3.5 | 0.00 | 0.00 | 0.00 | 73 | 1015.5 |
| 20260507161016 | 56 | 90 | 1.7 | 4.3 | 0.00 | 0.00 | 0.00 | 72 | 1015.3 |
| 20260507160016 | 56 | 113 | 0.9 | 4.3 | 0.00 | 0.00 | 0.00 | 72 | 1015.6 |
| 20260507155016 | 56 | 113 | 0.9 | 2.6 | 0.00 | 0.00 | 0.00 | 71 | 1015.6 |
| 20260507154016 | 56 | 135 | 0.9 | 3.5 | 0.00 | 0.00 | 0.00 | 70 | 1015.6 |
| 20260507153016 | 56 | 113 | 1.7 | 3.5 | 0.00 | 0.00 | 0.00 | 72 | 1015.7 |
| 20260507152016 | 56 | 90 | 0.9 | 3.5 | 0.00 | 0.00 | 0.00 | 71 | 1015.7 |
| 20260507151016 | 56 | 113 | 1.7 | 4.3 | 0.00 | 0.00 | 0.00 | 71 | 1015.7 |
| 20260507150016 | 56 | 90 | 1.7 | 5.2 | 0.00 | 0.00 | 0.00 | 70 | 1015.8 |
| 20260507145016 | 56 | 0.0 | 2.6 | 0.00 | 0.00 | 0.00 | 70 | 1015.9 | |
| 20260507144016 | 57 | 113 | 0.9 | 3.5 | 0.00 | 0.00 | 0.00 | 69 | 1016.0 |
| 20260507143016 | 57 | 113 | 0.9 | 3.5 | 0.00 | 0.00 | 0.00 | 67 | 1016.0 |
| 20260507142036 | 57 | 135 | 2.6 | 6.1 | 0.00 | 0.00 | 0.00 | 63 | 1016.1 |
| 20260507141016 | 58 | 113 | 0.9 | 3.5 | 0.00 | 0.00 | 0.00 | 57 | 1016.2 |
| 20260507140016 | 57 | 135 | 3.5 | 7.0 | 0.00 | 0.00 | 0.00 | 56 | 1016.3 |
| 20260507135016 | 58 | 135 | 2.6 | 7.0 | 0.00 | 0.00 | 0.00 | 59 | 1016.4 |
| 20260507134016 | 58 | 135 | 1.7 | 4.3 | 0.00 | 0.00 | 0.00 | 61 | 1016.3 |
| 20260507133016 | 59 | 135 | 1.7 | 7.8 | 0.00 | 0.00 | 0.00 | 59 | 1016.4 |
| 20260507132016 | 59 | 135 | 2.6 | 8.7 | 0.00 | 0.00 | 0.00 | 57 | 1016.2 |
| 20260507131016 | 60 | 113 | 1.7 | 7.0 | 0.00 | 0.00 | 0.00 | 59 | 1016.2 |
| 20260507130016 | 59 | 135 | 2.6 | 7.0 | 0.00 | 0.00 | 0.00 | 62 | 1016.3 |
| 20260507125016 | 58 | 135 | 1.7 | 7.8 | 0.00 | 0.00 | 0.00 | 61 | 1016.3 |
| 20260507124016 | 59 | 113 | 1.7 | 7.8 | 0.00 | 0.00 | 0.00 | 65 | 1016.4 |
| 20260507123016 | 59 | 113 | 1.7 | 3.5 | 0.00 | 0.00 | 0.00 | 63 | 1016.4 |
| 20260507122016 | 59 | 90 | 0.9 | 6.1 | 0.00 | 0.00 | 0.00 | 69 | 1016.4 |
| 20260507121016 | 59 | 135 | 2.6 | 7.8 | 0.00 | 0.00 | 0.00 | 68 | 1016.5 |
| 20260507120016 | 59 | 113 | 0.9 | 5.2 | 0.00 | 0.00 | 0.00 | 70 | 1016.5 |
| 20260507115036 | 58 | 135 | 1.7 | 7.8 | 0.00 | 0.00 | 0.00 | 69 | 1016.6 |
| 20260507114036 | 58 | 113 | 1.7 | 4.3 | 0.00 | 0.00 | 0.00 | 70 | 1016.5 |
| 20260507113016 | 58 | 135 | 1.7 | 7.0 | 0.00 | 0.00 | 0.00 | 73 | 1016.6 |
| 20260507112036 | 57 | 135 | 0.9 | 4.3 | 0.00 | 0.00 | 0.00 | 73 | 1016.5 |
| 20260507111016 | 56 | 135 | 0.9 | 5.2 | 0.00 | 0.00 | 0.00 | 74 | 1016.5 |
| 20260507110016 | 56 | 90 | 0.9 | 2.6 | 0.00 | 0.00 | 0.00 | 74 | 1016.4 |
| 20260507105016 | 56 | 90 | 0.9 | 3.5 | 0.00 | 0.00 | 0.00 | 75 | 1016.3 |
| 20260507104036 | 56 | 270 | 0.9 | 3.5 | 0.00 | 0.00 | 0.00 | 72 | 1016.5 |
| 20260507103015 | 57 | 338 | 0.9 | 4.3 | 0.00 | 0.00 | 0.00 | 73 | 1016.5 |
| 20260507102015 | 57 | 225 | 0.9 | 7.0 | 0.00 | 0.00 | 0.00 | 73 | 1016.4 |
| 20260507101016 | 56 | 270 | 0.9 | 4.3 | 0.00 | 0.00 | 0.00 | 73 | 1016.5 |
| 20260507100016 | 55 | 68 | 0.9 | 2.6 | 0.00 | 0.00 | 0.00 | 74 | 1016.6 |
| 20260507095015 | 55 | 0.0 | 1.7 | 0.00 | 0.00 | 0.00 | 76 | 1016.5 | |
| 20260507094036 | 55 | 0.0 | 0.0 | 0.00 | 0.00 | 0.00 | 82 | 1016.6 | |
| 20260507093015 | 54 | 248 | 0.9 | 3.5 | 0.00 | 0.00 | 0.00 | 84 | 1016.5 |
| 20260507092016 | 53 | 0.0 | 1.7 | 0.00 | 0.00 | 0.00 | 87 | 1016.4 | |
| 20260507091016 | 53 | 0.0 | 0.0 | 0.00 | 0.00 | 0.00 | 89 | 1016.5 | |
| 20260507090015 | 52 | 0.0 | 2.6 | 0.00 | 0.00 | 0.00 | 90 | 1016.5 | |
| 20260507085035 | 52 | 113 | 0.9 | 2.6 | 0.00 | 0.00 | 0.00 | 90 | 1016.4 |
| 20260507084016 | 51 | 0.0 | 1.7 | 0.00 | 0.00 | 0.00 | 91 | 1016.5 | |
| 20260507083015 | 51 | 0.0 | 1.7 | 0.00 | 0.00 | 0.00 | 91 | 1016.5 | |
| 20260507082015 | 51 | 0.0 | 1.7 | 0.00 | 0.00 | 0.00 | 91 | 1016.5 | |
| 20260507081015 | 51 | 0.0 | 0.0 | 0.00 | 0.00 | 0.00 | 91 | 1016.3 | |
| 20260507080015 | 50 | 0.0 | 0.0 | 0.00 | 0.00 | 0.00 | 91 | 1016.4 | |
| 20260507075035 | 50 | 0.0 | 0.0 | 0.00 | 0.00 | 0.00 | 92 | 1016.3 | |
| 20260507074036 | 49 | 0.0 | 0.0 | 0.00 | 0.00 | 0.00 | 92 | 1016.3 | |
| 20260507073038 | 48 | 0.0 | 0.0 | 0.00 | 0.00 | 0.00 | 91 | 1016.2 | |
| 20260507072017 | 47 | 0.0 | 0.0 | 0.00 | 0.00 | 0.00 | 91 | 1016.2 | |
| 20260507071037 | 47 | 0.0 | 0.0 | 0.00 | 0.00 | 0.00 | 91 | 1016.1 | |
| 20260507070017 | 46 | 270 | 0.9 | 1.7 | 0.00 | 0.00 | 0.00 | 91 | 1016.0 |
| 20260507065037 | 46 | 0.0 | 1.7 | 0.00 | 0.00 | 0.00 | 91 | 1016.0 | |
| 20260507064017 | 46 | 0.0 | 0.0 | 0.00 | 0.00 | 0.00 | 91 | 1015.9 | |
| 20260507063017 | 45 | 0.0 | 0.0 | 0.00 | 0.00 | 0.00 | 91 | 1015.8 | |
| 20260507062017 | 44 | 270 | 0.9 | 1.7 | 0.00 | 0.00 | 0.00 | 91 | 1015.7 |
| 20260507061017 | 44 | 270 | 1.7 | 2.6 | 0.00 | 0.00 | 0.00 | 91 | 1015.7 |
| 20260507060017 | 44 | 0.0 | 0.0 | 0.00 | 0.00 | 0.00 | 91 | 1015.7 | |
| 20260507055017 | 43 | 270 | 0.9 | 2.6 | 0.00 | 0.00 | 0.00 | 91 | 1015.6 |
| 20260507054017 | 43 | 0.0 | 0.9 | 0.00 | 0.00 | 0.00 | 91 | 1015.6 | |
| 20260507053017 | 43 | 270 | 0.9 | 2.6 | 0.00 | 0.00 | 0.00 | 91 | 1015.6 |
| 20260507052017 | 43 | 0.0 | 0.0 | 0.00 | 0.00 | 0.00 | 91 | 1015.5 | |
| 20260507051037 | 43 | 0.0 | 0.0 | 0.00 | 0.00 | 0.00 | 91 | 1015.4 | |
| 20260507050017 | 43 | 0.0 | 0.0 | 0.00 | 0.00 | 0.00 | 91 | 1015.4 | |
| 20260507045017 | 43 | 0.0 | 0.9 | 0.00 | 0.00 | 0.00 | 91 | 1015.5 | |
| 20260507044017 | 43 | 0.0 | 0.0 | 0.00 | 0.00 | 0.00 | 91 | 1015.5 | |
| 20260507043017 | 43 | 0.0 | 0.0 | 0.00 | 0.00 | 0.00 | 90 | 1015.4 | |
| 20260507042017 | 44 | 270 | 0.9 | 3.5 | 0.00 | 0.00 | 0.00 | 90 | 1015.5 |
| 20260507041018 | 44 | 0.0 | 0.0 | 0.00 | 0.00 | 0.00 | 90 | 1015.4 | |
| 20260507040017 | 43 | 0.0 | 0.0 | 0.00 | 0.00 | 0.00 | 90 | 1015.5 | |
| 20260507035017 | 43 | 0.0 | 0.0 | 0.00 | 0.00 | 0.00 | 90 | 1015.5 | |
| 20260507034017 | 43 | 270 | 0.9 | 1.7 | 0.00 | 0.00 | 0.00 | 90 | 1015.5 |
| 20260507033037 | 43 | 270 | 0.9 | 2.6 | 0.00 | 0.00 | 0.00 | 90 | 1015.5 |
| 20260507032017 | 44 | 0.0 | 2.6 | 0.00 | 0.00 | 0.00 | 90 | 1015.4 | |
| 20260507031017 | 43 | 0.0 | 0.9 | 0.00 | 0.00 | 0.00 | 90 | 1015.5 | |
| 20260507030017 | 44 | 0.0 | 0.9 | 0.00 | 0.00 | 0.00 | 90 | 1015.4 | |
| 20260507025017 | 43 | 0.0 | 0.9 | 0.00 | 0.00 | 0.00 | 90 | 1015.5 | |
| 20260507024017 | 43 | 270 | 0.9 | 2.6 | 0.00 | 0.00 | 0.00 | 89 | 1015.5 |
| 20260507023017 | 43 | 270 | 0.9 | 2.6 | 0.00 | 0.00 | 0.00 | 89 | 1015.4 |
| 20260507022017 | 44 | 270 | 0.9 | 2.6 | 0.00 | 0.00 | 0.00 | 89 | 1015.3 |
| 20260507021037 | 44 | 0.0 | 0.0 | 0.00 | 0.00 | 0.00 | 89 | 1015.3 | |
| 20260507020017 | 45 | 0.0 | 0.0 | 0.00 | 0.00 | 0.00 | 89 | 1015.2 | |
| 20260507015057 | 45 | 0.0 | 0.0 | 0.00 | 0.00 | 0.00 | 89 | 1015.2 | |
| 20260507014017 | 45 | 0.0 | 0.0 | 0.00 | 0.00 | 0.00 | 89 | 1015.3 | |
| 20260507013017 | 45 | 0.0 | 0.0 | 0.00 | 0.00 | 0.00 | 89 | 1015.3 | |
| 20260507012017 | 45 | 0.0 | 0.0 | 0.00 | 0.00 | 0.00 | 88 | 1015.3 | |
| 20260507011017 | 45 | 0.0 | 0.0 | 0.00 | 0.00 | 0.00 | 88 | 1015.2 | |
| 20260507010037 | 46 | 0.0 | 0.0 | 0.00 | 0.00 | 0.00 | 88 | 1015.3 | |
| 20260507005037 | 46 | 0.0 | 0.0 | 0.00 | 0.00 | 0.00 | 88 | 1015.4 | |
| 20260507004017 | 46 | 0.0 | 0.0 | 0.00 | 0.00 | 0.00 | 87 | 1015.3 | |
| 20260507003017 | 46 | 0.0 | 0.0 | 0.00 | 0.00 | 0.00 | 87 | 1015.3 | |
| 20260507002016 | 46 | 0.0 | 0.0 | 0.00 | 0.00 | 0.00 | 87 | 1015.3 | |
| 20260507001037 | 47 | 0.0 | 0.0 | 0.00 | 0.00 | 0.00 | 87 | 1015.4 | |
| 20260507000016 | 47 | 0.0 | 0.0 | 0.00 | 0.00 | 0.00 | 87 | 1015.5 |